Regional Weather Roundup
Issued by NWS

Home | Current Version | Previous Version | Graphics & Text | Print | Product List | Glossary On
Versions: 1 2 3 4 5 6 7 8 9 10 11 12 13 14 15 16 17 18 19 20 21 22 23 24 25 26 27 28 29 30 31 32 33 34 35 36 37 38 39 40 41 42 43 44 45 46 47 48 49 50
000
ASUS43 KMPX 282010
RWRMN
WEATHER ROUNDUP FOR MINNESOTA
NATIONAL WEATHER SERVICE TWIN CITIES/CHANHASSEN MN
300 PM CDT FRI APR 28 2017


NOTE: "FAIR" INDICATES FEW OR NO CLOUDS BELOW 12,000 FEET WITH NO
SIGNIFICANT WEATHER AND/OR OBSTRUCTIONS TO VISIBILITY. N/A MEANS
CURRENT SKY AND/OR WEATHER CONDITIONS ARE NOT AVAILABLE.

MNZ060>063-068>070-282100-
   Twin Cities Metro

CITY           SKY/WX    TMP DP  RH WIND       PRES   REMARKS
TWIN CITIES    CLOUDY    48  28  46 NW7       29.95R
ST PAUL        CLOUDY    48  29  47 N8        29.96R
CRYSTAL        CLOUDY    48  27  44 NW9       29.94S
BLAINE         PTSUNNY   48  28  46 NW5       29.95S
LAKEVILLE      CLOUDY    46  28  49 N7        29.95R
EDEN PRAIRIE   CLOUDY    49  30  48 NW13      29.93S
SOUTH ST PAUL  CLOUDY    48  28  46 N9        29.95S
LAKE ELMO      FAIR      46  32  57 NW9       29.96R
$$
MNZ001>005-007-008-013>017-022>024-027-028-282100-
   Northwest Minnesota

CITY           SKY/WX    TMP DP  RH WIND       PRES   REMARKS
BEMIDJI        SUNNY     45  15  30 N10G16    29.95R
HALLOCK        SUNNY     54  12  19 NW18G25   29.99S
ROSEAU         SUNNY     48  18  29 N7        29.98R
WARROAD        SUNNY     46  18  31 N8        29.98R
THIEF RVR FALL SUNNY     48  17  29 NW18      30.00R
CROOKSTON      SUNNY     52  23  32 N16G26    30.00S
FOSSTON        SUNNY     46  18  31 N15       29.99R
DETROIT LAKES  SUNNY     46  27  46 N10G21    29.99R
MOORHEAD       SUNNY     48  25  40 N18       30.02R
PARK RAPIDS    SUNNY     50  12  21 NW15G21   29.94R
MAHNOMEN       FAIR      47  25  41 N10       29.99R
$$
MNZ006-009>011-018-025>026-282100-
   North Central Minnesota

CITY           SKY/WX    TMP DP  RH WIND       PRES   REMARKS
BAUDETTE       SUNNY     44  23  43 N13       29.96R
FLAG ISLAND    MOSUNNY   41  21  45 N12       29.97R
INTL FALLS     CLOUDY    39  25  57 N14       29.95R
WASKISH        CLOUDY    46  27  46 N13       29.95R
BIG FORK       PTSUNNY   48  27  43 N10       29.92R
LONGVILLE      SUNNY     46  18  31 NW7G17    29.94R
GRAND RAPIDS   SUNNY     48  22  35 NW17G25   29.93R
CRANE LAKE     CLOUDY    36  27  69 NW13      29.95R
ORR            PTSUNNY   39  23  52 NW8G17    29.90R
COOK           MOSUNNY   43  25  49 N13       29.91R
WALKER         FAIR      45  21  38 NW10      29.95R
$$
MNZ012-019>021-037-282100-
   Northeast Minnesota

CITY           SKY/WX    TMP DP  RH WIND       PRES   REMARKS
DULUTH         PTSUNNY   47  26  44 NW12G17   29.89R
ELY            CLOUDY    39  27  60 N9G22     29.89R
HIBBING        CLOUDY    45  27  49 NW23      29.89R
EVELETH        MOSUNNY   44  17  33 NW16      29.90R
DULUTH HARBOR  CLOUDY    48  28  46 W7G13     29.92S
TWO HARBORS    PTSUNNY   48  30  49 NW6       29.88R
SILVER BAY     PTSUNNY   45  27  49 NW10G21   29.86R
GRAND MARAIS     N/A     39  30  70 VRB7G16   29.88R
G MARAIS ARPRT CLOUDY    30  21  69 NW5       29.83R WCI  25
$$
MNZ029>031-032-039>041-046>048-054>057-064-282100-
   West Central Minnesota

CITY           SKY/WX    TMP DP  RH WIND       PRES   REMARKS
FERGUS FALLS   SUNNY     48  27  43 N8G24     29.99R
WHEATON        CLOUDY    48  21  34 N13G20    30.02R
MORRIS         MOSUNNY   52  25  35 N14G23    29.98R
ALEXANDRIA     CLOUDY    49  23  36 N14G20    29.97R
ELBOW LAKE     FAIR      47  21  34 NW12G20   29.99R
WADENA         MOSUNNY   48  25  40 NW10G18   29.95R
GLENWOOD       MOSUNNY   50  21  32 NW7G17    29.97R
APPLETON       CLOUDY    52  19  28 NE16      29.98R
BENSON         CLOUDY    54  10  17 NE10G18   29.99R
ORTONVILLE     CLOUDY    48  27  43 NE16      29.99R
MADISON        MOSUNNY   54  27  35 NE16      29.98R
WILLMAR        FAIR      48  30  49 N9        29.98S
$$
MNZ033>034-036-042>043-049>051-058-059-282100-
   Central Minnesota

CITY           SKY/WX    TMP DP  RH WIND       PRES   REMARKS
ST CLOUD       CLOUDY    48  26  42 VRB7      29.96R
SAUK CENTRE    FAIR      47  25  40 N8G16     29.97R
PAYNESVILLE    MOSUNNY   49  28  44 N6        29.97R
AITKIN         SUNNY     52  18  25 NW13      29.92S
PINE RIVER     SUNNY     48  21  34 N14       29.97S
BRAINERD       SUNNY     49  19  30 NW8       29.94S
STAPLES        SUNNY     50  12  22 N12G21    29.94S
LONG PRAIRIE   FAIR      46  23  39 NW9G16    29.96R
LITTLE FALLS   CLOUDY    46  21  36 N9        29.95R
LITCHFIELD     MOSUNNY   48  30  49 NE8       29.96R
BUFFALO        CLOUDY    47  29  49 N6        29.96F
MAPLE LAKE     CLOUDY    50  31  48 N9        29.97S
HUTCHINSON     MOSUNNY   49  34  56 NE6       29.97S
$$
MNZ037-044-045-052-053-282100-
   East Central Minnesota

CITY           SKY/WX    TMP DP  RH WIND       PRES   REMARKS
PRINCETON      CLOUDY    52  28  40 N7        29.95S
MORA           CLOUDY    45  28  53 NW9       29.97R
CAMBRIDGE      CLOUDY    48  32  53 N8        29.93S
RUSH CITY      MOSUNNY   45  28  51 N7        29.95S
MOOSE LAKE     CLOUDY    50  27  40 N13       29.90S
HINCKLEY       FAIR      50  30  46 W9        29.94R
CLOQUET        CLOUDY    48  19  32 NW15G23   29.90S
MCGREGOR       MOSUNNY   48  27  43 W7G17     29.92S
$$
MNZ071>073-080-081-089-090-097-098-282100-
   Southwest Minnesota

CITY           SKY/WX    TMP DP  RH WIND       PRES   REMARKS
MONTEVIDEO     CLOUDY    52  27  37 NE14G23   29.97R
GRANITE FALLS  MOSUNNY   52  35  51 NE15      29.98S
CANBY          CLOUDY    52  26  36 NE14G22   29.98R
MARSHALL       MOSUNNY   49  30  48 NE14G25   29.96R
REDWOOD FALLS  CLOUDY    50  31  48 N8        29.96S
OLIVIA         CLOUDY    50  32  50 N12       29.96S
PIPESTONE      CLOUDY    45  27  49 NE13G18   29.94R
WINDOM         CLOUDY    45  30  57 N14G20    29.94F
WORTHINGTON    CLOUDY    44  32  62 N18G25    29.92F
JACKSON        CLOUDY    45  32  61 NE14      29.93F
TRACY          CLOUDY    47  33  59 NE13      29.96S
SLAYTON        CLOUDY    43  31  62 N12       29.95S
$$
MNZ065>067-074>077-082>085-091>093-282100-
   South Central Minnesota

CITY           SKY/WX    TMP DP  RH WIND       PRES   REMARKS
MANKATO        MOSUNNY   45  29  53 N10       29.96R
NEW ULM        MOSUNNY   46  30  53 N6        29.96R
ST JAMES       CLOUDY    46  34  61 N10       29.96S
FAIRMONT       CLOUDY    44  33  65 NE13      29.93F
GLENCOE        CLOUDY    48  35  60 N9        29.95S
FARIBAULT      CLOUDY    46  30  53 NE6       29.95R
OWATONNA       CLOUDY    46  30  53 NE6       29.95S
WASECA         CLOUDY    45  32  61 NW3       29.96S
ALBERT LEA     CLOUDY    45  32  61 NE6       29.94R
$$
MNZ078>079-086>088-094>096-282100-
   Southeast Minnesota

CITY           SKY/WX    TMP DP  RH WIND       PRES   REMARKS
ROCHESTER      MOSUNNY   46  33  60 CALM      29.93S
RED WING       CLOUDY    48  25  40 NW5       29.94S
STANTON        CLOUDY    47  31  53 N6        29.94R
DODGE CENTER   CLOUDY    45  32  61 N3        29.94R
WINONA           N/A     46  34  61 CALM      29.95S
AUSTIN         MOSUNNY   45  34  65 N3        29.93S
PRESTON        CLOUDY    43  32  63 N5        29.93S
$$
ABBREVIATIONS USED IN REMARKS
   TC - TEMPERATURES IN CELSIUS
  WCI - WIND CHILL INDEX
   HX - HEAT INDEX
  VSB - VISIBILITY
$$



USA.gov is the U.S. government's official web portal to all federal, state and local government web resources and services.